Terminal Aerodrome Forecast
Issued by NWS

Home | Current Version | Previous Version | Text Only | Print | Product List | Glossary On
Versions: 1 2 3 4 5 6 7 8 9 10 11 12 13 14
000
FTAK31 PAJN 011139
TAFAGY
TAF
PAGY 011139Z 0112/0212 03005KT P6SM BKN090
     FM011800 04010KT P6SM SCT100
     FM020200 04006KT P6SM FEW060 SCT080
      AMD LTD TO CLD VIS AND WIND=

USA.gov is the U.S. government's official web portal to all federal, state and local government web resources and services.